Regional Weather Roundup
Issued by NWS Sioux Falls, SD

Home | Current Version | Previous Version | Text Only | Print | Product List | Glossary Off
Versions: 1 2 3 4 5 6 7 8 9 10 11 12 13 14 15 16 17 18 19 20 21 22 23 24 25 26 27 28 29 30 31 32 33 34 35 36 37 38 39 40 41 42 43 44 45 46 47 48 49 50

213
ASUS43 KFSD 270702
RWRFSD

WEATHER ROUNDUP FOR SE SOUTH DAKOTA/SW MINNESOTA/NW IOWA
NATIONAL WEATHER SERVICE SIOUX FALLS SD
200 AM CDT THU APR 27 2017

NOTE: "FAIR" INDICATES FEW OR NO CLOUDS BELOW 12,000 FEET WITH NO
SIGNIFICANT WEATHER AND OR OBSTRUCTIONS TO VISIBILITY.


SDZ038>040-050-052>070-270800-
SOUTHEAST SOUTH DAKOTA

CITY           SKY/WX    TMP DP  RH WIND       PRES   REMARKS
BROOKINGS      CLOUDY    28  24  85 NW16      29.64F WCI  16
CHAMBERLAIN    MOCLDY    30  29  94 N3        29.74S
HURON          CLOUDY    30  24  78 N9        29.72F WCI  22
MADISON        CLOUDY    28  28 100 NW14      29.65F WCI  17
MITCHELL       CLOUDY    32  27  81 N10       29.72F WCI  24
SIOUX FALLS    CLOUDY    31  26  82 NW15      29.66R WCI  20
WINNER         FAIR      27  23  85 SW3       29.73S
YANKTON        CLOUDY    32  25  74 NW13      29.69F WCI  22
$$

MNZ071-072-080-081-089-090-097-098-270800-
SOUTHWEST MINNESOTA

CITY           SKY/WX    TMP DP  RH WIND       PRES   REMARKS
FAIRMONT       CLOUDY    31  30  96 NW14      29.59F WCI  21
JACKSON        CLOUDY    30  28  93 NW14      29.60F WCI  20
LUVERNE        CLOUDY    30  25  80 NW8       29.66R WCI  23
MARSHALL       CLOUDY    29  27  92 NW15      29.64R WCI  18
MONTEVIDEO     CLOUDY    30  30 100 N10G17    29.63S WCI  21
PIPESTONE      CLOUDY    28  23  80 N15G21    29.62S WCI  17
REDWOOD FALLS  CLOUDY    32  28  85 NW10      29.61S WCI  24
TRACY          LGT SNOW  31  29  94 NW13G20   29.63S WCI  21
WINDOM         CLEAR     30  28  93 NW14      29.61F WCI  20
WORTHINGTON    CLOUDY    29  27  92 NW14      29.63S WCI  18
$$

IAZ001>003-012>014-020>022-031-032-NEZ013-014-SDZ071-270800-
NORTHWEST IOWA

CITY           SKY/WX    TMP DP  RH WIND       PRES   REMARKS
CHEROKEE       CLOUDY    32  30  90 NW12      29.64F WCI  23
DENISON        CLOUDY    34  30  86 NW8G15    29.65F WCI  27
ESTHERVILLE    CLOUDY    30  29  96 NW18      29.60F WCI  18
LE MARS        CLOUDY    34  28  80 NW12      29.68R WCI  25
ORANGE CITY    CLOUDY    32  28  86 NW10      29.65F WCI  24
SHELDON        CLOUDY    32  28  86 NW14      29.63R WCI  22
SIOUX CITY     CLOUDY    34  29  82 NW14      29.68F WCI  25
SPENCER        CLOUDY    31  27  85 NW14      29.62F WCI  21
STORM LAKE     CLOUDY    32  28  86 NW15      29.62F WCI  22
$$

ABBREVIATIONS USED IN REMARKS
   TC - TEMPERATURE IN CELSIUS
  WCI - WIND CHILL INDEX
   HX - HEAT INDEX
  VSB - VISIBILITY





USA.gov is the U.S. government's official web portal to all federal, state and local government web resources and services.